Bluefield, WV

2:49 AM EDT on May 24, 2018 (GMT -0400)
Mercer County

Weather History for KBLF - September, 2013

Change the Weather History Date:

Saturday, September 14, 2013

  Actual Average Record
Temperature  
Mean Temperature 59 °F 66 °F  
Max Temperature 70 °F 75 °F 92 °F (1998)
Min Temperature 47 °F 58 °F 39 °F (1985)
Degree Days  
Heating Degree Days 6 2  
Month to date heating degree days 10 14  
Since 1 July heating degree days 16 20  
Cooling Degree Days 0 3  
Month to date cooling degree days 93 63  
Year to date cooling degree days 895 797  
Growing Degree Days 8 (Base 50)    
Moisture  
Dew Point 44 °F    
Average Humidity 61    
Maximum Humidity 86    
Minimum Humidity 36    
Precipitation  
Precipitation 0.00 in 0.11 in 0.81 in (1991)
Month to date precipitation 0.86 1.42  
Year to date precipitation 31.08 29.81  
Snow  
Snow 0.00 in - - ()
Month to date snowfall 0.0  
Since 1 July snowfall 0.0  
Since 1 September snowfall 0.0  
Snow Depth 0.00 in    
Sea Level Pressure  
Sea Level Pressure 30.08 in    
Wind  
Wind Speed 2 mph (NNW)    
Max Wind Speed 10 mph    
Max Gust Speed -    
Visibility 10 miles    
Events      
T = Trace of Precipitation, MM = Missing Value Source: NWS Daily Summary

Daily Weather History Graph

Daily Weather History Graph

Search for Another Location

Airport or City:

Astronomy

Sep. 14, 2013 Rise Set
Actual Time 7:06 AM EDT 7:33 PM EDT
Civil Twilight 6:40 AM EDT 7:59 PM EDT
Nautical Twilight 6:09 AM EDT 8:30 PM EDT
Astronomical Twilight 5:37 AM EDT 9:01 PM EDT
Moon 4:09 PM EDT (9/14) 1:41 AM EDT (9/14)
Length of Visible Light 13h 19m
Length of Day
12h 27m
Waxing Gibbous, 72% of the Moon is Illuminated
Sep 14
Waxing Gibbous
Sep 19
Full
Sep 26
Last Quarter
Oct 4
New
Oct 11
First Quarter

Hourly Weather History & Observations

Time (EDT) Temp. Dew Point Humidity Pressure Visibility Wind Dir Wind Speed Gust Speed Precip Events Conditions
12:52 AM 51.1 °F 44.1 °F 77% 30.00 in 10.0 mi WSW 3.5 mph - N/A   Scattered Clouds
1:02 AM 51.8 °F 44.6 °F 76% 30.06 in 10.0 mi WNW 3.5 mph - N/A   Mostly Cloudy
1:20 AM 51.8 °F 44.6 °F 76% 30.06 in 10.0 mi NNW 3.5 mph - N/A   Mostly Cloudy
1:52 AM 51.1 °F 44.1 °F 77% 30.00 in 10.0 mi Calm Calm - N/A   Scattered Clouds
2:52 AM 50.0 °F 43.0 °F 77% 30.00 in 10.0 mi Calm Calm - N/A   Mostly Cloudy
3:25 AM 50.0 °F 44.6 °F 82% 30.06 in 10.0 mi NW 3.5 mph - N/A   Scattered Clouds
3:52 AM 50.0 °F 44.1 °F 80% 30.00 in 10.0 mi Calm Calm - N/A   Clear
4:52 AM 48.0 °F 43.0 °F 83% 30.00 in 10.0 mi Calm Calm - N/A   Clear
5:52 AM 48.0 °F 43.0 °F 83% 30.02 in 9.0 mi Calm Calm - N/A   Scattered Clouds
6:17 AM 48.2 °F 44.6 °F 87% 30.08 in 10.0 mi Calm Calm - N/A   Mostly Cloudy
6:35 AM 48.2 °F 44.6 °F 87% 30.08 in 10.0 mi Calm Calm - N/A   Scattered Clouds
6:52 AM 46.9 °F 43.0 °F 86% 30.04 in 10.0 mi Calm Calm - N/A   Clear
7:37 AM 48.2 °F 42.8 °F 82% 30.11 in 10.0 mi Calm Calm - N/A   Mostly Cloudy
7:52 AM 50.0 °F 44.1 °F 80% 30.07 in 10.0 mi Calm Calm - N/A   Overcast
8:52 AM 52.0 °F 44.1 °F 74% 30.09 in 10.0 mi Calm Calm - N/A   Mostly Cloudy
9:12 AM 51.8 °F 44.6 °F 76% 30.14 in 10.0 mi NE 3.5 mph - N/A   Overcast
9:48 AM 53.6 °F 44.6 °F 72% 30.15 in 10.0 mi Calm Calm - N/A   Scattered Clouds
9:52 AM 54.0 °F 44.1 °F 69% 30.11 in 10.0 mi Variable 3.5 mph - N/A   Partly Cloudy
10:52 AM 59.0 °F 43.0 °F 55% 30.11 in 10.0 mi ENE 3.5 mph - N/A   Clear
11:52 AM 62.1 °F 41.0 °F 46% 30.11 in 10.0 mi WNW 4.6 mph - N/A   Partly Cloudy
12:52 PM 64.0 °F 43.0 °F 46% 30.09 in 10.0 mi Calm Calm - N/A   Clear
1:52 PM 66.0 °F 42.1 °F 42% 30.08 in 10.0 mi NE 3.5 mph - N/A   Clear
2:52 PM 69.1 °F 43.0 °F 39% 30.07 in 10.0 mi Variable 3.5 mph - N/A   Clear
3:52 PM 69.1 °F 41.0 °F 36% 30.06 in 10.0 mi Calm Calm - N/A   Clear
4:52 PM 69.1 °F 46.0 °F 44% 30.07 in 10.0 mi West 4.6 mph - N/A   Clear
5:52 PM 69.1 °F 45.0 °F 42% 30.08 in 10.0 mi NW 4.6 mph - N/A   Clear
6:52 PM 66.0 °F 46.0 °F 48% 30.10 in 10.0 mi NW 5.8 mph - N/A   Clear
7:52 PM 62.1 °F 45.0 °F 53% 30.12 in 10.0 mi Calm Calm - N/A   Clear
8:52 PM 57.9 °F 46.0 °F 65% 30.13 in 10.0 mi Calm Calm - N/A   Clear
9:52 PM 57.0 °F 45.0 °F 64% 30.13 in 10.0 mi ESE 3.5 mph - N/A   Clear
10:52 PM 55.9 °F 46.0 °F 69% 30.13 in 10.0 mi ESE 3.5 mph - N/A   Clear
11:52 PM 55.9 °F 45.0 °F 67% 30.13 in 10.0 mi East 3.5 mph - N/A   Clear